Regional Weather Roundup
Issued by NWS

Home | Current Version | Previous Version | Graphics & Text | Print | Product List | Glossary Off
Versions: 1 2 3 4 5 6 7 8 9 10 11 12 13 14 15 16 17 18 19 20 21 22 23 24 25 26 27 28 29 30 31 32 33 34 35 36 37 38 39 40 41 42 43 44 45 46 47 48 49 50

000
ASUS43 KMKX 280411
RWRWI

WISCONSIN REGIONAL WEATHER ROUNDUP
NATIONAL WEATHER SERVICE MILWAUKEE/SULLIVAN WI
1000 PM CST MON FEB 27 2017

NOTE: "FAIR" INDICATES FEW OR NO CLOUDS BELOW 12,000 FEET WITH NO
SIGNIFICANT WEATHER AND/OR OBSTRUCTIONS TO VISIBILITY.

WIZ001-002-006>008-014>016-023>028-280500-
NORTHWEST WISCONSIN

CITY           SKY/WX    TMP DP  RH WIND       PRES   REMARKS
SUPERIOR ARPT  CLOUDY    30  28  93 NE5       29.90F WCI  25
ASHLAND        CLOUDY    25  23  92 NE3       29.92F FOG
HAYWARD        CLOUDY    33  18  53 S5        29.90S WCI  29
SIREN          CLOUDY    36  20  52 S8        29.88S WCI  30
CUMBERLAND     CLOUDY    32  21  64 SE6       29.89S WCI  26
RICE LAKE      CLOUDY    34  22  61 E7        29.90F WCI  28
CHETEK         CLOUDY    34  22  61 CALM      29.90F
LADYSMITH      CLOUDY    36  22  57 SE6       29.93F WCI  31
EAU CLAIRE     CLOUDY    37  27  67 S7        29.91F WCI  32
MENOMONIE      CLOUDY    35  24  64 CALM      29.91F
NEW RICHMOND   CLOUDY    34  23  63 SE8       29.88F WCI  27
OSCEOLA        CLOUDY    37  24  60 SE13      29.90F WCI  29
$$

WIZ003>005-009-010-017-018-280500-
NORTH CENTRAL WISCONSIN

CITY           SKY/WX    TMP DP  RH WIND       PRES   REMARKS
MANITOWISH WTR MOCLDY    29  18  61 S7        29.93F WCI  22
ARBOR VITAE    CLOUDY    32  20  61 S6          N/A  WCI  26
WOODRUFF       CLOUDY    32  20  61 S6          N/A  WCI  26
RHINELANDER    CLOUDY    33  24  69 S3        29.97S
EAGLE RIVER    CLOUDY    30  20  66 S5        29.96S WCI  25
LAND O LAKES   CLOUDY    31  21  65 S5        29.97S WCI  26
PHILLIPS       CLOUDY    33  22  63 S6        29.92F WCI  27
TOMAHAWK       CLOUDY    29  22  74 CALM      29.96S
MEDFORD        MOCLDY    34  27  73 SE7       29.94S WCI  28
MERRILL        NOT AVBL
$$

WIZ029-030-035-036-043>047-280500-
CENTRAL WISCONSIN

CITY           SKY/WX    TMP DP  RH WIND       PRES   REMARKS
WAUSAU         CLOUDY    32  26  78 SE7       29.97F WCI  26
MOSINEE        CLEAR     34  28  80 E7        29.99S WCI  28
MARSHFIELD     CLOUDY    35  28  75 E6        29.95S WCI  30
STEVENS POINT  MOCLDY    31  27  86 E5        29.99F WCI  26
WAUPACA        CLOUDY    32  29  87 E3        30.01F
WAUTOMA        CLOUDY    29  27  92 CALM      30.00
WISC RAPIDS    MOCLDY    34  30  85 SE7       29.98F WCI  28
CAMP DOUGLAS   CLOUDY    38  31  76 SE5       29.96S WCI  34
$$

WIZ011>013-019>022-031-037>040-048>050-280500-
NORTHEAST WISCONSIN

CITY           SKY/WX    TMP DP  RH WIND       PRES   REMARKS
ANTIGO         CLOUDY    30  26  84 SE10      29.98F WCI  21
SHAWANO        CLOUDY    31  28  90 NE3       30.03F
OCONTO         CLOUDY    28  27  96 CALM      30.05F
STURGEON BAY   NOT AVBL
GREEN BAY      CLOUDY    32  30  92 CALM      30.04F
MANITOWOC      CLOUDY    33  31  92 CALM      30.06F FOG
APPLETON       MOCLDY    34  28  80 CALM      30.00F
CLINTONVILLE   CLOUDY    32  28  86 CALM      30.02F
OSHKOSH        CLOUDY    34  30  85 S3        30.02F
$$

WIZ032>034-041-042-053>061-280500-
SOUTHWEST WISCONSIN

CITY           SKY/WX    TMP DP  RH WIND       PRES   REMARKS
LA CROSSE      MOCLDY    41  32  70 E6        29.93S
SPARTA         CLOUDY    35  31  86 CALM      29.95S
VIROQUA        MOCLDY    40  32  74 SE10      29.93F WCI  33
BOSCOBEL       CLOUDY    39  33  79 N3        29.95F
PRAIRIE DU CHI CLOUDY    43  32  65 E7        29.93S
PLATTEVILLE    CLOUDY    41  35  80 E9        29.97S
$$

WIZ056-057-062-063-064-067-068-280500-
SOUTH CENTRAL WISCONSIN

CITY           SKY/WX    TMP DP  RH WIND       PRES   REMARKS
REEDSBURG      CLOUDY    39  32  75 CALM      29.97S
BARABOO/DELLS  CLOUDY    38  30  72 SE5       29.97S WCI  35
LONE ROCK      CLOUDY    40  33  76 E9        29.97F WCI  34
MINERAL POINT  PTCLDY    43  34  70 SE8       29.97S
MADISON        CLOUDY    42  32  67 S5        29.99F
MIDDLETON      MOCLDY    41  33  72 S3        29.99F
WATERTOWN      CLOUDY    39  34  81 SE7       30.00F WCI  34
MONROE         CLOUDY    41  32  70 E8        29.97S
JANESVILLE     CLOUDY    41  34  75 E7        29.98F
$$

WIZ051-052-058>065-066-070>072-280500-
SOUTHEAST WISCONSIN

CITY           SKY/WX    TMP DP  RH WIND       PRES   REMARKS
MILWAUKEE      CLOUDY    44  34  67 SE9       30.03F
WAUKESHA       CLOUDY    37  32  81 SE3       30.03F
MILWAUKEE/TIMM CLOUDY    41  32  70 SE3       30.04F
RACINE         PTCLDY    41  34  76 S10       30.05F
KENOSHA        CLOUDY    44  34  67 SE14      30.03F
FOND DU LAC    CLOUDY    36  29  75 SE6       30.02F WCI  31
SHEBOYGAN      PTCLDY    32  30  92 CALM      30.05F FOG
WEST BEND      CLOUDY    34  32  93 CALM      30.03F
JUNEAU         CLOUDY    38  32  80 E8        30.02F WCI  32
$$

LSZ147-162-280500-
LAKE SUPERIOR

STATION/POSITION TIME  TEMP    WIND        PRES    WAVE
                       AIR SEA DIR/SP/G            HT/PER
                 (UTC) (F)     (DEG/KT/KT) (MB)    (FT/S)
DEVILS ISLAND    0400   31      80/  7/  7 1014.1F
PORT WING        0330   29      40/  5/  5 1012.9F
SAXON HARBOR     0240   26     180/  1/  2 1013.2F
$$

LMZ867-665-643>646-280500-
LAKE MICHIGAN

STATION/POSITION TIME  TEMP    WIND        PRES    WAVE
                       AIR SEA DIR/SP/G            HT/PER
                 (UTC) (F)     (DEG/KT/KT) (MB)    (FT/S)
CHAMBERS ISLAND  0340   34     170/  2/  6 1017.6S
NORTHPORT PIER   0340   34     150/  5/  7 1017.9F
SISTER BAY       0335   34     170/  6/  8   N/A
ALGOMA LAKESHORE 0341          200/  5/  6   N/A
KEWAUNEE LAKESHO 0348   35     170/  2/  4 1017.6F
SHEBOYGAN LAKESH 0400   37     170/  8/  8 1018.2F
PORT WASHINGTON  0340   38     160/  1/  3 1019.0S
MILWAUKEE LAKESH 0330   40     150/  9/ 10   N/A
KENOSHA   LAKESH 0400   40     170/ 11/ 14 1017.3
$$

TC  - TEMPERATURE IN CELSIUS
VSB - VISIBILITY IN STATUTE MILES
WCI - WIND CHILL INDEX
HX  - HEAT INDEX





USA.gov is the U.S. government's official web portal to all federal, state and local government web resources and services.